• In Germany
  • List of Countries
  • For 7 days
  • Water Temperature
  • Satellite Maps
  • Weather Map
  • Weather Widgets
  • user-avatar
    Login

    Hourly Weather Georgetown

    Today, 16 December, Saturday

    Time Temperature Precipitation Wind Pressure Humidity
    00:00 +24°C° 0 mm 8 mps 735 mmHg 27%
    01:00 +24°C° 0 mm 8 mps 735 mmHg 27%
    02:00 +23°C° 0 mm 8 mps 735 mmHg 27%
    03:00 +23°C° 0 mm 8 mps 735 mmHg 27%
    04:00 +22°C° 0 mm 8 mps 735 mmHg 27%
    05:00 +22°C° 0 mm 8 mps 735 mmHg 28%
    06:00 +22°C° 0 mm 8 mps 735 mmHg 28%
    07:00 +21°C° 0 mm 8 mps 735 mmHg 28%
    08:00 +23°C° 0 mm 7 mps 735 mmHg 26%
    09:00 +26°C° 0 mm 7 mps 736 mmHg 25%
    10:00 +28°C° 0 mm 6 mps 736 mmHg 23%
    11:00 +30°C° 0 mm 5 mps 735 mmHg 23%
    12:00 +32°C° 0 mm 4 mps 735 mmHg 23%
    13:00 +34°C° 0 mm 3 mps 735 mmHg 23%
    14:00 +34°C° 0 mm 3 mps 734 mmHg 23%
    15:00 +34°C° 0 mm 3 mps 734 mmHg 24%
    16:00 +34°C° 0 mm 3 mps 733 mmHg 24%
    17:00 +31°C° 0 mm 3 mps 733 mmHg 26%
    18:00 +29°C° 0 mm 3 mps 734 mmHg 27%
    19:00 +27°C° 0 mm 4 mps 734 mmHg 29%
    20:00 +26°C° 0 mm 4 mps 734 mmHg 27%
    21:00 +26°C° 0 mm 5 mps 735 mmHg 25%
    22:00 +24°C° 0 mm 6 mps 735 mmHg 23%
    23:00 +24°C° 0 mm 6 mps 735 mmHg 23%

    Tomorrow, 17 December, Sunday

    Time Temperature Precipitation Wind Pressure Humidity
    00:00 +24°C° 0 mm 7 mps 735 mmHg 24%
    01:00 +23°C° 0 mm 7 mps 735 mmHg 24%
    02:00 +23°C° 0 mm 7 mps 734 mmHg 24%
    03:00 +22°C° 0 mm 7 mps 734 mmHg 25%
    04:00 +22°C° 0 mm 7 mps 734 mmHg 25%
    05:00 +22°C° 0 mm 7 mps 734 mmHg 25%
    06:00 +22°C° 0 mm 7 mps 734 mmHg 26%
    07:00 +22°C° 0 mm 7 mps 734 mmHg 26%
    08:00 +24°C° 0 mm 6 mps 735 mmHg 24%
    09:00 +27°C° 0 mm 6 mps 735 mmHg 23%
    10:00 +29°C° 0 mm 6 mps 735 mmHg 21%
    11:00 +30°C° 0 mm 5 mps 735 mmHg 21%
    12:00 +33°C° 0 mm 3 mps 734 mmHg 22%
    13:00 +34°C° 0 mm 2 mps 733 mmHg 22%
    14:00 +34°C° 0 mm 2 mps 733 mmHg 23%
    15:00 +34°C° 0 mm 2 mps 733 mmHg 23%
    16:00 +34°C° 0 mm 2 mps 732 mmHg 23%
    17:00 +31°C° 0 mm 2 mps 732 mmHg 26%
    18:00 +29°C° 0 mm 3 mps 733 mmHg 29%
    19:00 +27°C° 0 mm 3 mps 733 mmHg 32%
    20:00 +26°C° 0 mm 4 mps 734 mmHg 30%
    21:00 +26°C° 0 mm 4 mps 734 mmHg 27%
    22:00 +26°C° 0 mm 4 mps 734 mmHg 25%
    23:00 +25°C° 0 mm 4 mps 734 mmHg 24%

    Day after tomorrow, 18 December, Monday

    Time Temperature Precipitation Wind Pressure Humidity
    00:00 +25°C° 0 mm 5 mps 734 mmHg 24%
    01:00 +23°C° 0 mm 5 mps 734 mmHg 23%
    02:00 +23°C° 0 mm 5 mps 734 mmHg 23%
    03:00 +23°C° 0 mm 5 mps 733 mmHg 23%
    04:00 +23°C° 0 mm 6 mps 733 mmHg 23%
    05:00 +22°C° 0 mm 6 mps 733 mmHg 23%
    06:00 +22°C° 0 mm 6 mps 734 mmHg 23%
    07:00 +22°C° 0 mm 6 mps 734 mmHg 22%
    08:00 +24°C° 0 mm 6 mps 735 mmHg 21%
    09:00 +28°C° 0 mm 5 mps 735 mmHg 20%
    10:00 +30°C° 0 mm 5 mps 735 mmHg 19%
    11:00 +32°C° 0 mm 4 mps 734 mmHg 20%
    12:00 +33°C° 0 mm 3 mps 734 mmHg 21%
    13:00 +34°C° 0 mm 2 mps 733 mmHg 22%
    14:00 +34°C° 0 mm 2 mps 732 mmHg 22%
    15:00 +34°C° 0 mm 2 mps 732 mmHg 22%
    16:00 +34°C° 0 mm 2 mps 731 mmHg 22%
    17:00 +31°C° 0 mm 2 mps 731 mmHg 25%
    18:00 +28°C° 0 mm 2 mps 732 mmHg 28%
    19:00 +26°C° 0 mm 2 mps 732 mmHg 31%
    20:00 +26°C° 0 mm 3 mps 733 mmHg 30%
    21:00 +26°C° 0 mm 3 mps 733 mmHg 30%
    22:00 +26°C° 0 mm 4 mps 733 mmHg 29%
    23:00 +25°C° 0 mm 4 mps 733 mmHg 27%

    19 December, Tuesday

    Time Temperature Precipitation Wind Pressure Humidity
    00:00 +25°C° 0 mm 4 mps 733 mmHg 25%
    01:00 +23°C° 0 mm 4 mps 733 mmHg 23%
    02:00 +23°C° 0 mm 4 mps 733 mmHg 23%
    03:00 +23°C° 0 mm 4 mps 733 mmHg 24%
    04:00 +23°C° 0 mm 5 mps 732 mmHg 24%
    05:00 +23°C° 0 mm 5 mps 733 mmHg 24%
    06:00 +23°C° 0 mm 5 mps 733 mmHg 24%
    07:00 +22°C° 0 mm 5 mps 734 mmHg 24%
    08:00 +26°C° 0 mm 5 mps 734 mmHg 23%
    09:00 +28°C° 0 mm 5 mps 734 mmHg 22%
    10:00 +30°C° 0 mm 5 mps 734 mmHg 21%
    11:00 +32°C° 0 mm 4 mps 734 mmHg 22%
    12:00 +33°C° 0 mm 3 mps 733 mmHg 23%
    13:00 +34°C° 0 mm 2 mps 732 mmHg 24%
    14:00 +35°C° 0 mm 2 mps 732 mmHg 23%
    15:00 +35°C° 0 mm 2 mps 731 mmHg 22%
    16:00 +35°C° 0 mm 2 mps 731 mmHg 21%
    17:00 +33°C° 0 mm 3 mps 731 mmHg 23%
    18:00 +30°C° 0 mm 3 mps 732 mmHg 25%
    19:00 +27°C° 0 mm 4 mps 732 mmHg 28%
    20:00 +27°C° 0 mm 4 mps 733 mmHg 26%
    21:00 +27°C° 0 mm 4 mps 733 mmHg 24%
    22:00 +26°C° 0 mm 4 mps 733 mmHg 22%
    23:00 +26°C° 0 mm 4 mps 733 mmHg 23%

    20 December, Wednesday

    Time Temperature Precipitation Wind Pressure Humidity
    00:00 +25°C° 0 mm 4 mps 733 mmHg 25%
    01:00 +25°C° 0 mm 4 mps 733 mmHg 26%
    02:00 +25°C° 0 mm 4 mps 733 mmHg 26%
    03:00 +23°C° 0 mm 5 mps 732 mmHg 26%
    04:00 +23°C° 0 mm 5 mps 732 mmHg 26%
    05:00 +23°C° 0 mm 5 mps 733 mmHg 26%
    06:00 +23°C° 0 mm 5 mps 733 mmHg 26%
    07:00 +23°C° 0 mm 5 mps 734 mmHg 26%
    08:00 +26°C° 0 mm 5 mps 734 mmHg 25%
    09:00 +29°C° 0 mm 5 mps 734 mmHg 23%
    10:00 +32°C° 0 mm 5 mps 734 mmHg 22%
    11:00 +33°C° 0 mm 4 mps 734 mmHg 22%
    12:00 +34°C° 0 mm 3 mps 733 mmHg 22%
    13:00 +35°C° 0 mm 2 mps 732 mmHg 22%
    14:00 +35°C° 0 mm 2 mps 732 mmHg 22%
    15:00 +36°C° 0 mm 2 mps 732 mmHg 22%
    16:00 +36°C° 0 mm 2 mps 731 mmHg 22%
    17:00 +32°C° 0 mm 2 mps 732 mmHg 24%
    18:00 +30°C° 0 mm 2 mps 732 mmHg 26%
    19:00 +28°C° 0 mm 3 mps 733 mmHg 28%
    20:00 +28°C° 0 mm 3 mps 733 mmHg 26%
    21:00 +27°C° 0 mm 4 mps 733 mmHg 25%
    22:00 +27°C° 0 mm 4 mps 734 mmHg 23%
    23:00 +27°C° 0 mm 5 mps 734 mmHg 24%

    21 December, Thursday

    Time Temperature Precipitation Wind Pressure Humidity
    00:00 +26°C° 0 mm 5 mps 733 mmHg 25%
    01:00 +26°C° 0 mm 5 mps 733 mmHg 26%
    02:00 +26°C° 0 mm 5 mps 733 mmHg 26%
    03:00 +26°C° 0 mm 6 mps 733 mmHg 27%
    04:00 +24°C° 0 mm 6 mps 733 mmHg 27%
    05:00 +24°C° 0 mm 6 mps 734 mmHg 27%
    06:00 +24°C° 0 mm 6 mps 734 mmHg 28%
    07:00 +24°C° 0 mm 6 mps 734 mmHg 28%
    08:00 +27°C° 0 mm 6 mps 735 mmHg 26%
    09:00 +29°C° 0 mm 6 mps 735 mmHg 25%
    10:00 +33°C° 0 mm 6 mps 735 mmHg 23%
    11:00 +34°C° 0 mm 5 mps 734 mmHg 22%
    12:00 +35°C° 0 mm 5 mps 734 mmHg 21%
    13:00 +37°C° 0 mm 4 mps 733 mmHg 20%
    14:00 +37°C° 0 mm 4 mps 733 mmHg 21%
    15:00 +37°C° 0 mm 3 mps 732 mmHg 22%
    16:00 +37°C° 0 mm 3 mps 732 mmHg 23%
    17:00 +35°C° 0 mm 3 mps 732 mmHg 23%
    18:00 +33°C° 0 mm 3 mps 733 mmHg 23%
    19:00 +30°C° 0 mm 3 mps 733 mmHg 24%
    20:00 +30°C° 0 mm 4 mps 733 mmHg 24%
    21:00 +29°C° 0 mm 5 mps 734 mmHg 25%
    22:00 +29°C° 0 mm 6 mps 734 mmHg 25%
    23:00 +28°C° 0 mm 6 mps 734 mmHg 27%
    Show more